• Join FlightAware (Why Join?)
  • Login
  • US Flag GB Flag 
20:07 EST


 

Airport Tracker/Info


-or-


 

Live Flight TrackerFlight Track Log ✈ SWA1377 ✈ 15-Apr-2013 ✈ KSAT - KMDW

Flight Track Log - Related Links

Times and Time Zones

All times are in EDT time to prevent confusion due to time zone crossing. See the SWA1377 flight status page for this flight to view local times or setup timezone preferences in your user account.

Time Position Orientation Groundspeed Altitude Reporting Facility
EDT Latitude Longitude Course Direction KTS MPH feet Rate Location/Type
07:08 29.5200 -98.4569 114° Southeast 158 182 1,800  Level Houston Center
07:09 29.4972 -98.3981 114° Southeast 213 245 4,200 1,980 Climbing Houston Center
07:10 29.5519 -98.3461 40° Northeast 269 310 6,000 2,520 Climbing Houston Center
07:11 29.6383 -98.3469 360° North 295 339 9,300 2,580 Climbing Houston Center
07:12 29.7228 -98.3564 354° North 308 354 11,300 2,400 Climbing Houston Center
07:13 29.8211 -98.3656 355° North 351 404 14,200 2,760 Climbing Houston Center
07:14 29.9256 -98.3697 358° North 377 434 16,900 2,700 Climbing Houston Center
07:15 30.0311 -98.3281 19° North 399 459 19,700 2,520 Climbing Houston Center
07:16 30.1422 -98.2850 19° North 421 484 22,100 2,280 Climbing Houston Center
07:17 30.2661 -98.2358 19° North 438 504 24,400 1,980 Climbing Houston Center
07:18 30.3747 -98.1944 18° North 454 522 26,200 1,920 Climbing Houston Center
07:19 30.4989 -98.1469 18° North 464 534 28,300 1,920 Climbing Houston Center
07:20 30.6253 -98.0964 19° North 469 540 30,100 1,680 Climbing Houston Center
07:21 30.7531 -98.0469 18° North 475 547 31,800 1,740 Climbing Houston Center
07:22 30.8794 -97.9969 19° North 475 547 33,700 1,620 Climbing Houston Center
07:23 31.0056 -97.9461 19° North 471 542 35,100 1,200 Climbing Houston Center
07:24 31.1336 -97.8961 18° North 475 547 36,200 1,260 Climbing Houston Center
07:25 31.2617 -97.8447 19° North 477 549 37,700 1,200 Climbing Houston Center
07:26 31.3714 -97.8025 18° North 470 541 38,600 660 Climbing Fort Worth Center
07:27 31.4947 -97.7519 19° North 464 534 39,000 180 Climbing Fort Worth Center
07:28 31.6242 -97.6989 19° North 469 540 39,000  Level Fort Worth Center
07:29 31.7497 -97.6478 19° North 475 547 39,000  Level Fort Worth Center
07:30 31.8769 -97.5994 18° North 475 547 39,000  Level Fort Worth Center
07:31 32.0108 -97.5408 20° North 475 547 39,000  Level Fort Worth Center
07:32 32.1381 -97.4919 18° North 470 541 39,000  Level Fort Worth Center
07:33 32.2633 -97.4403 19° North 470 541 39,000  Level Fort Worth Center
07:34 32.3867 -97.3889 19° North 465 535 39,000  Level Fort Worth Center
07:35 32.4972 -97.3419 20° North 470 541 39,000  Level Fort Worth Center
07:36 32.6203 -97.2925 19° North 465 535 39,000  Level Fort Worth Center
07:37 32.7394 -97.2431 19° North 465 535 39,000  Level Fort Worth Center
07:38 32.8769 -97.1833 20° North 460 529 39,000  Level Fort Worth Center
07:39 32.9811 -97.1139 29° Northeast 476 548 39,000  Level Fort Worth Center
07:40 33.1125 -97.0242 30° Northeast 487 560 39,000  Level Fort Worth Center
07:41 33.2269 -96.9442 30° Northeast 474 545 39,000  Level Fort Worth Center
07:42 33.3228 -96.8664 34° Northeast 466 536 39,000  Level Fort Worth Center
07:43 33.4350 -96.7736 35° Northeast 473 544 39,000  Level Fort Worth Center
07:44 33.5389 -96.6808 37° Northeast 473 544 39,000  Level Fort Worth Center
07:45 33.6469 -96.5875 36° Northeast 473 544 39,000  Level Fort Worth Center
07:46 33.7589 -96.4942 35° Northeast 478 550 39,000  Level Fort Worth Center
07:47 33.8689 -96.4003 35° Northeast 478 550 39,000  Level Fort Worth Center
07:48 33.9869 -96.2964 36° Northeast 478 550 39,000  Level Fort Worth Center
07:49 34.0944 -96.1997 37° Northeast 478 550 39,000  Level Fort Worth Center
07:50 34.2042 -96.1050 36° Northeast 474 545 39,000  Level Fort Worth Center
07:51 34.3117 -96.0081 37° Northeast 474 545 39,000  Level Fort Worth Center
07:52 34.4231 -95.9131 35° Northeast 479 551 39,000  Level Fort Worth Center
07:53 34.5325 -95.8178 36° Northeast 479 551 39,000  Level Fort Worth Center
07:54 34.6397 -95.7200 37° Northeast 479 551 39,000  Level Fort Worth Center
07:55 34.7469 -95.6244 36° Northeast 479 551 39,000  Level Fort Worth Center
07:56 34.8603 -95.5283 35° Northeast 474 545 39,000  Level Fort Worth Center
07:57 34.9650 -95.4297 38° Northeast 480 552 39,000  Level Fort Worth Center
07:59 35.1331 -95.2817 36° Northeast 476 548 39,000  Level Kansas City Center
08:00 35.2400 -95.1847 37° Northeast 476 548 39,000  Level Kansas City Center
08:01 35.3456 -95.0875 37° Northeast 475 547 39,000  Level Kansas City Center
08:02 35.4706 -94.9764 36° Northeast 474 545 39,000  Level Memphis Center
08:03 35.5783 -94.8778 37° Northeast 474 545 39,000  Level Memphis Center
08:04 35.6839 -94.7811 37° Northeast 474 545 39,000  Level Memphis Center
08:05 35.7917 -94.6819 37° Northeast 474 545 39,000  Level Memphis Center
08:06 35.9014 -94.5828 36° Northeast 474 545 39,000  Level Memphis Center
08:07 36.0069 -94.4856 37° Northeast 474 545 39,000  Level Memphis Center
08:09 36.2250 -94.2817 37° Northeast 484 557 39,000  Level Kansas City Center
08:10 36.3344 -94.1811 36° Northeast 488 562 39,000  Level Kansas City Center
08:11 36.4428 -94.0786 37° Northeast 490 564 39,000  Level Kansas City Center
08:12 36.5522 -93.9767 37° Northeast 491 565 39,000  Level Kansas City Center
08:13 36.6597 -93.8753 37° Northeast 489 563 39,000  Level Kansas City Center
08:14 36.7836 -93.7592 37° Northeast 488 562 39,000  Level Kansas City Center
08:15 36.8894 -93.6586 37° Northeast 485 558 39,000  Level Kansas City Center
08:16 36.9972 -93.5553 37° Northeast 486 559 39,000  Level Kansas City Center
08:17 37.1061 -93.4511 37° Northeast 489 563 39,000  Level Kansas City Center
08:18 37.2158 -93.3475 37° Northeast 490 564 39,000  Level Kansas City Center
08:19 37.3250 -93.2428 37° Northeast 491 565 39,000  Level Kansas City Center
08:20 37.4361 -93.1336 38° Northeast 498 573 39,000  Level Kansas City Center
08:21 37.5447 -93.0278 38° Northeast 495 570 39,000  Level Kansas City Center
08:22 37.6536 -92.9217 38° Northeast 494 568 39,000  Level Kansas City Center
08:24 37.7856 -92.7908 38° Northeast 498 573 39,000  Level Kansas City Center
08:25 37.8836 -92.6942 38° Northeast 493 567 39,000  Level Kansas City Center
08:26 37.9908 -92.5878 38° Northeast 493 567 39,000  Level Kansas City Center
08:27 38.0997 -92.4822 37° Northeast 494 568 39,000  Level Kansas City Center
08:28 38.2267 -92.3553 38° Northeast 496 571 39,000  Level Kansas City Center
08:29 38.3353 -92.2461 38° Northeast 493 567 39,000  Level Kansas City Center
08:30 38.4431 -92.1372 38° Northeast 491 565 39,000  Level Kansas City Center
08:31 38.5517 -92.0286 38° Northeast 492 566 39,000  Level Kansas City Center
08:32 38.6600 -91.9192 38° Northeast 492 566 39,000  Level Kansas City Center
08:33 38.7692 -91.8089 38° Northeast 495 570 39,000  Level Kansas City Center
08:34 38.8767 -91.6983 39° Northeast 495 570 39,000  Level Kansas City Center
08:35 38.9869 -91.5861 38° Northeast 499 574 39,000  Level Kansas City Center
08:36 39.0978 -91.4733 38° Northeast 503 579 39,000  Level Kansas City Center
08:37 39.2078 -91.3589 39° Northeast 505 581 39,000  Level Kansas City Center
08:38 39.3172 -91.2453 39° Northeast 505 581 39,000  Level Kansas City Center
08:39 39.4253 -91.1333 39° Northeast 502 578 39,000 -300 Level Kansas City Center
08:40 39.5331 -91.0194 39° Northeast 500 575 38,400 -780 Descending Kansas City Center
08:41 39.6419 -90.9069 38° Northeast 499 574 37,400 -1,020 Descending Kansas City Center
08:42 39.7714 -90.7700 39° Northeast 500 575 36,300 -1,080 Descending Kansas City Center
08:43 39.8797 -90.6550 39° Northeast 501 577 35,300 -1,620 Descending Kansas City Center
08:44 39.9889 -90.5386 39° Northeast 504 580 33,100 -2,100 Descending Kansas City Center
08:45 40.0958 -90.4236 39° Northeast 502 578 31,000 -1,020 Descending Kansas City Center
08:46 40.1989 -90.3142 39° Northeast 491 565 31,000 -60 Level Kansas City Center
08:47 40.3008 -90.2042 39° Northeast 481 554 30,900 -360 Descending Kansas City Center
08:47 40.3211 -90.1819 40° Northeast 477 549 30,600 -1,980 Descending Chicago Center
08:48 40.4419 -90.0528 39° Northeast 468 539 28,300 -2,100 Descending Chicago Center
08:49 40.5397 -89.9444 40° Northeast 456 525 26,300 -1,800 Descending Chicago Center
08:50 40.6356 -89.8383 40° Northeast 453 521 24,600 -1,260 Descending Chicago Center
08:51 40.7189 -89.7036 51° Northeast 473 544 23,800 -2,100 Descending Chicago Center
08:52 40.7922 -89.5325 60° Northeast 480 552 20,400 -3,240 Descending Chicago Center
08:53 40.8556 -89.3850 60° Northeast 465 535 17,200 -1,680 Descending Chicago Center
08:54 40.9158 -89.2444 60° Northeast 443 510 17,000 -360 Descending Chicago Center
08:56 40.9814 -89.1117 57° Northeast 434 499 16,500 -1,020 Descending Chicago Center
08:57 41.0631 -89.0006 46° Northeast 400 460 15,000 -1,920 Descending Chicago Center
08:58 41.1350 -88.9039 45° Northeast 375 432 12,600 -2,280 Descending Chicago Center
08:59 41.1961 -88.8122 48° Northeast 338 389 10,400 -2,040 Descending Chicago Center
09:00 41.2586 -88.7267 46° Northeast 325 374 8,500 -1,680 Descending Chicago Center
09:01 41.3428 -88.6539 33° Northeast 322 371 7,000 -780 Descending Chicago Center
09:02 41.4208 -88.6308 12° North 307 353 7,000  Level Chicago Center
09:03 41.4644 -88.5333 59° Northeast 306 352 7,000  Level Chicago Center
09:04 41.5044 -88.4283 63° Northeast 316 364 7,000 -480 Level Chicago Center
09:05 41.5461 -88.3292 61° Northeast 310 357 6,100 -540 Descending Chicago Center
09:06 41.5900 -88.2406 56° Northeast 291 335 5,900 -540 Descending Chicago Center
09:07 41.6036 -88.1503 79° East 263 303 5,000 -480 Descending Chicago Center
09:08 41.6128 -88.0572 82° East 254 292 5,000  Level Chicago Center
09:09 41.6231 -87.9578 82° East 235 270 5,000  Level Chicago Center
09:10 41.6297 -87.8769 84° East 224 258 5,000  Level Chicago Center
09:10 41.6333 -87.8500 80° East 222 255 5,000  Level Chicago TRACON
09:11 41.6167 -87.7833 108° East 217 250 5,000 -180 Level Chicago TRACON
09:12 41.6142 -87.7164 93° East 218 251 4,700 -660 Descending Chicago Center
09:13 41.6067 -87.6408 98° East 217 250 3,800 -840 Descending Chicago Center
09:14 41.6531 -87.5922 38° Northeast 225 259 3,000 -660 Descending Chicago Center
09:15 41.7067 -87.6406 326° Northwest 208 239 2,500 -540 Descending Chicago Center
09:16 41.7500 -87.6833 324° Northwest 195 224 1,900 -360 Descending Chicago TRACON
09:17 41.8000 -87.6833 360° North 184 212 1,800 -300 Descending Chicago TRACON
09:18 41.8167 -87.7167 304° West 133 153 1,300 -540 Descending Chicago TRACON